Total_Precipitation_Accumulation
0.71 0.69 0.64 0.58 0.56 0.56 0.59 0.67 0.76 0.70 0.53 0.40 0.39 0.41 0.44 0.46 0.52 0.50 0.46 0.56 0.57 0.55 0.58 0.58 0.55 0.52 0.48 0.49 0.54 0.62 0.66 0.66 0.66 0.70 0.72 0.73 0.76 0.84
0.68 0.67 0.63 0.58 0.57 0.57 0.60 0.65 0.72 0.79 0.69 0.48 0.40 0.42 0.45 0.46 0.52 0.45 0.42 0.49 0.48 0.47 0.47 0.47 0.44 0.41 0.39 0.39 0.41 0.47 0.51 0.55 0.59 0.65 0.73 0.80 0.83 0.90
0.63 0.62 0.61 0.58 0.58 0.57 0.58 0.61 0.64 0.69 0.73 0.59 0.49 0.49 0.50 0.47 0.46 0.40 0.36 0.34 0.33 0.38 0.36 0.35 0.33 0.31 0.30 0.30 0.31 0.34 0.37 0.42 0.49 0.57 0.65 0.74 0.80 0.82
0.56 0.57 0.57 0.56 0.56 0.55 0.57 0.59 0.59 0.60 0.63 0.58 0.47 0.43 0.41 0.38 0.34 0.29 0.25 0.21 0.20 0.27 0.26 0.25 0.24 0.22 0.21 0.22 0.25 0.30 0.32 0.34 0.39 0.44 0.49 0.58 0.65 0.70
0.52 0.53 0.54 0.57 0.59 0.57 0.56 0.56 0.54 0.53 0.53 0.52 0.43 0.36 0.32 0.28 0.26 0.22 0.18 0.16 0.14 0.17 0.18 0.18 0.18 0.18 0.19 0.20 0.22 0.24 0.24 0.23 0.24 0.28 0.33 0.39 0.45 0.52
0.54 0.55 0.54 0.55 0.55 0.54 0.55 0.55 0.53 0.50 0.48 0.47 0.45 0.39 0.33 0.28 0.25 0.21 0.17 0.14 0.12 0.11 0.14 0.14 0.15 0.15 0.13 0.11 0.11 0.13 0.15 0.15 0.19 0.24 0.29 0.33 0.36 0.43
0.56 0.57 0.57 0.59 0.58 0.55 0.50 0.47 0.44 0.44 0.46 0.50 0.49 0.39 0.29 0.24 0.21 0.18 0.18 0.17 0.16 0.14 0.13 0.11 0.10 0.09 0.08 0.08 0.08 0.09 0.12 0.15 0.19 0.23 0.27 0.33 0.37 0.41
0.57 0.54 0.52 0.53 0.49 0.47 0.44 0.41 0.42 0.46 0.54 0.56 0.46 0.32 0.23 0.19 0.19 0.21 0.23 0.26 0.21 0.11 0.11 0.10 0.09 0.08 0.06 0.06 0.08 0.10 0.12 0.13 0.14 0.16 0.19 0.23 0.28 0.33
0.55 0.50 0.46 0.42 0.41 0.35 0.35 0.36 0.37 0.40 0.40 0.34 0.26 0.20 0.19 0.19 0.26 0.31 0.28 0.26 0.18 0.10 0.12 0.12 0.09 0.09 0.07 0.06 0.08 0.07 0.08 0.09 0.11 0.13 0.15 0.18 0.21 0.27
0.43 0.38 0.34 0.30 0.28 0.28 0.30 0.35 0.32 0.28 0.24 0.21 0.18 0.16 0.17 0.19 0.25 0.33 0.32 0.28 0.18 0.12 0.11 0.12 0.08 0.07 0.06 0.06 0.07 0.06 0.07 0.09 0.13 0.17 0.18 0.19 0.21 0.24
0.32 0.28 0.26 0.24 0.27 0.32 0.34 0.35 0.25 0.19 0.19 0.21 0.22 0.21 0.20 0.19 0.20 0.28 0.33 0.33 0.24 0.12 0.09 0.09 0.07 0.07 0.06 0.06 0.06 0.06 0.07 0.08 0.08 0.10 0.12 0.13 0.15 0.18
0.23 0.23 0.26 0.25 0.29 0.35 0.33 0.28 0.21 0.17 0.18 0.19 0.20 0.19 0.18 0.18 0.20 0.22 0.33 0.50 0.39 0.22 0.07 0.10 0.12 0.14 0.22 0.07 0.04 0.04 0.04 0.05 0.05 0.07 0.09 0.11 0.14 0.16
0.17 0.18 0.21 0.30 0.35 0.37 0.31 0.23 0.23 0.25 0.22 0.20 0.20 0.20 0.19 0.18 0.18 0.17 0.23 0.50 0.65 0.41 0.12 0.29 0.39 0.21 0.30 0.15 0.04 0.04 0.03 0.03 0.04 0.06 0.09 0.14 0.19 0.29
0.18 0.17 0.20 0.31 0.33 0.30 0.27 0.26 0.30 0.29 0.23 0.24 0.24 0.21 0.18 0.16 0.16 0.16 0.17 0.22 0.35 0.42 0.26 0.45 0.70 0.43 0.47 0.32 0.09 0.04 0.03 0.03 0.08 0.14 0.18 0.23 0.28 0.33
0.21 0.22 0.25 0.27 0.25 0.25 0.26 0.28 0.27 0.24 0.23 0.24 0.23 0.20 0.18 0.18 0.19 0.21 0.20 0.19 0.18 0.17 0.19 0.25 0.46 0.49 0.57 0.51 0.26 0.09 0.07 0.05 0.08 0.18 0.23 0.25 0.28 0.34
0.25 0.25 0.24 0.23 0.23 0.23 0.24 0.24 0.23 0.22 0.25 0.27 0.24 0.21 0.21 0.23 0.24 0.24 0.25 0.24 0.24 0.17 0.14 0.14 0.21 0.42 0.51 0.33 0.34 0.25 0.18 0.22 0.17 0.24 0.29 0.28 0.33 0.42
0.32 0.28 0.26 0.24 0.23 0.21 0.21 0.21 0.21 0.22 0.24 0.24 0.27 0.28 0.26 0.25 0.24 0.23 0.27 0.30 0.31 0.22 0.16 0.13 0.14 0.18 0.25 0.28 0.30 0.20 0.18 0.25 0.34 0.42 0.47 0.46 0.40 0.48
0.40 0.32 0.25 0.23 0.22 0.21 0.20 0.22 0.23 0.24 0.25 0.28 0.30 0.32 0.33 0.32 0.29 0.24 0.25 0.31 0.32 0.24 0.21 0.19 0.20 0.23 0.18 0.13 0.20 0.30 0.31 0.38 0.45 0.49 0.59 0.70 0.57 0.48
0.39 0.29 0.22 0.19 0.19 0.21 0.23 0.25 0.26 0.25 0.28 0.34 0.37 0.39 0.41 0.37 0.33 0.31 0.28 0.29 0.28 0.24 0.23 0.24 0.31 0.50 0.50 0.25 0.11 0.28 0.52 0.56 0.51 0.53 0.60 0.78 0.92 0.75
0.29 0.23 0.20 0.20 0.21 0.24 0.27 0.29 0.30 0.31 0.33 0.35 0.37 0.40 0.44 0.44 0.39 0.33 0.31 0.34 0.35 0.30 0.24 0.21 0.27 0.52 0.82 0.67 0.44 0.32 0.38 0.58 0.77 0.83 0.68 0.55 0.60 0.58
0.21 0.20 0.22 0.25 0.29 0.31 0.32 0.34 0.36 0.38 0.37 0.39 0.40 0.41 0.46 0.51 0.43 0.34 0.34 0.33 0.36 0.36 0.30 0.21 0.22 0.33 0.52 0.63 0.49 0.28 0.30 0.36 0.61 0.96 0.92 0.71 0.51 0.41
0.22 0.24 0.27 0.32 0.37 0.41 0.41 0.41 0.41 0.39 0.39 0.41 0.41 0.42 0.45 0.51 0.49 0.41 0.39 0.39 0.35 0.34 0.32 0.23 0.21 0.26 0.37 0.52 0.41 0.23 0.20 0.17 0.17 0.24 0.56 1.01 1.43 1.52
0.27 0.30 0.33 0.37 0.42 0.46 0.46 0.44 0.42 0.38 0.38 0.44 0.47 0.46 0.47 0.49 0.44 0.45 0.44 0.45 0.45 0.39 0.33 0.27 0.22 0.21 0.24 0.29 0.33 0.25 0.17 0.13 0.11 0.14 0.32 0.51 0.80 1.07